WB5MTX Weather Reports


Display with metric or nautical units.
time (UTC)temp
F
wind
direction
speed
MPH
gust
MPH
rain 1hr
in
rain 24hr
in
rain mn
in
humidity
%
barometer
mb
20260831081600 80 0 0.0 3.0 0.00 0.00 0.00 63 1014.7
20260831080113 81 0 0.0 4.0 0.00 0.00 0.00 62 1014.6
20260831074611 81 0 0.0 6.0 0.00 0.00 0.00 60 1014.6
20260831073102 82 196 0.0 7.0 0.00 0.00 0.00 59 1014.6
20260831071603 82 202 2.0 8.0 0.00 0.00 0.00 57 1014.6
20260831064606 83 199 0.0 4.0 0.00 0.00 0.00 55 1014.6
20260831063103 83 197 0.0 4.0 0.00 0.00 0.00 54 1014.7
20260831061604 83 0 0.0 4.0 0.00 0.00 0.00 54 1014.7
20260831060117 83 0 0.0 2.0 0.00 0.00 0.00 53 1014.5
20260831054615 83 0 0.0 2.0 0.00 0.00 0.00 53 1014.6
20260831051603 83 0 0.0 0.0 0.00 0.00 0.00 52 1014.4
20260831050114 83 0 0.0 0.0 0.00 0.00 0.00 50 1014.5
20260831044601 83 0 0.0 0.0 0.00 0.00 0.00 51 1014.5
20260831043104 83 0 0.0 0.0 0.00 0.00 0.00 49 1014.4
20260831041626 84 0 0.0 0.0 0.00 0.00 0.00 49 1014.4
20260831040105 84 0 0.0 0.0 0.00 0.00 0.00 48 1014.3
20260831034601 84 0 0.0 0.0 0.00 0.00 0.00 48 1014.2
20260831033107 85 0 0.0 0.0 0.00 0.00 0.00 48 1014.0
20260831031612 86 0 0.0 0.0 0.00 0.00 0.00 48 1013.9
20260831030117 86 0 0.0 0.0 0.00 0.00 0.00 47 1013.8
20260831024602 87 0 0.0 0.0 0.00 0.00 0.00 47 1013.6
20260831023109 87 0 0.0 0.0 0.00 0.00 0.00 47 1013.4
20260831021608 88 0 0.0 1.0 0.00 0.00 0.00 47 1013.2
20260831020113 89 0 0.0 0.0 0.00 0.00 0.00 47 1013.0
20260831014604 89 0 0.0 0.0 0.00 0.00 0.00 45 1012.8
20260831013107 90 0 0.0 0.0 0.00 0.00 0.00 42 1012.6
20260831011609 91 0 0.0 0.0 0.00 0.00 0.00 41 1012.5
20260831010106 93 0 0.0 3.0 0.00 0.00 0.00 40 1012.5
20260831004606 94 0 0.0 3.0 0.00 0.00 0.00 36 1012.4
20260831003104 95 0 0.0 7.0 0.00 0.00 0.00 33 1012.5
20260831001605 96 124 0.0 8.0 0.00 0.00 0.00 32 1012.5
20260831000105 97 121 1.0 8.0 0.00 0.00 0.00 33 1012.5
20260830234607 98 98 0.0 8.0 0.00 0.00 0.00 35 1012.7
20260830233103 98 0 2.0 7.0 0.00 0.00 0.00 30 1012.7
20260830231600 99 94 2.0 9.0 0.00 0.00 0.00 30 1012.6
20260830230104 100 209 0.0 8.0 0.00 0.00 0.00 29 1012.7
20260830224609 100 143 1.0 6.0 0.00 0.00 0.00 26 1012.8
20260830223108 100 123 1.0 11.0 0.00 0.00 0.00 27 1012.8
20260830221627 101 131 1.0 8.0 0.00 0.00 0.00 28 1012.8
20260830220112 100 107 2.0 12.0 0.00 0.00 0.00 28 1012.8
20260830214607 100 170 2.0 9.0 0.00 0.00 0.00 28 1012.8
20260830213103 101 88 1.0 11.0 0.00 0.00 0.00 27 1012.9
20260830211606 101 0 1.0 10.0 0.00 0.00 0.00 27 1013.0
20260830210105 102 0 1.0 8.0 0.00 0.00 0.00 27 1013.2
20260830204608 101 221 2.0 9.0 0.00 0.00 0.00 28 1013.4
20260830203105 101 198 2.0 10.0 0.00 0.00 0.00 30 1013.6
20260830201615 100 0 1.0 8.0 0.00 0.00 0.00 29 1013.8
20260830200113 101 0 1.0 8.0 0.00 0.00 0.00 29 1014.0
20260830194615 100 0 1.0 7.0 0.00 0.00 0.00 30 1014.1
20260830193110 100 0 2.0 10.0 0.00 0.00 0.00 28 1014.4
20260830191605 100 209 2.0 9.0 0.00 0.00 0.00 31 1014.6
20260830190103 100 156 2.0 11.0 0.00 0.00 0.00 31 1014.7
20260830184606 99 192 1.0 11.0 0.00 0.00 0.00 32 1015.0
20260830183103 99 0 1.0 8.0 0.00 0.00 0.00 33 1015.1
20260830181604 99 113 1.0 8.0 0.00 0.00 0.00 33 1015.4
20260830180105 98 0 1.0 9.0 0.00 0.00 0.00 34 1015.5
20260830174604 98 0 2.0 10.0 0.00 0.00 0.00 34 1015.8
20260830173123 98 121 0.0 9.0 0.00 0.00 0.00 37 1016.2
20260830171602 97 204 1.0 11.0 0.00 0.00 0.00 40 1016.4
20260830170108 97 0 2.0 11.0 0.00 0.00 0.00 39 1016.5
20260830164610 96 120 1.0 9.0 0.00 0.00 0.00 41 1016.6
20260830163114 94 155 1.0 13.0 0.00 0.00 0.00 43 1016.8
20260830161608 94 220 2.0 13.0 0.00 0.00 0.00 42 1016.8
20260830160107 94 0 1.0 10.0 0.00 0.00 0.00 45 1016.7
20260830154611 93 219 1.0 9.0 0.00 0.00 0.00 48 1017.0
20260830153110 92 0 1.0 6.0 0.00 0.00 0.00 50 1017.0
20260830151604 90 234 2.0 9.0 0.00 0.00 0.00 51 1016.8
20260830150105 89 234 2.0 11.0 0.00 0.00 0.00 53 1016.8
20260830144613 88 222 0.0 7.0 0.00 0.00 0.00 56 1016.7
20260830143059 86 0 0.0 8.0 0.00 0.00 0.00 58 1016.9
20260830141606 84 208 0.0 5.0 0.00 0.00 0.00 63 1016.7
20260830140109 83 0 1.0 8.0 0.00 0.00 0.00 65 1016.8
20260830134605 81 0 0.0 4.0 0.00 0.00 0.00 70 1016.7
20260830133100 78 0 0.0 3.0 0.00 0.00 0.00 74 1016.7
20260830131600 77 0 0.0 0.0 0.00 0.00 0.00 76 1016.7
20260830130108 76 0 0.0 0.0 0.00 0.00 0.00 77 1016.6
20260830124602 76 0 0.0 0.0 0.00 0.00 0.00 77 1016.3
20260830123105 75 0 0.0 0.0 0.00 0.00 0.00 77 1016.2
20260830121605 75 0 0.0 0.0 0.00 0.00 0.00 76 1015.9
20260830120107 76 0 0.0 0.0 0.00 0.00 0.00 76 1015.7
20260830114606 76 0 0.0 0.0 0.00 0.00 0.00 74 1015.6
20260830113104 77 0 0.0 1.0 0.00 0.00 0.00 73 1015.4
20260830111601 77 0 0.0 4.0 0.00 0.00 0.00 73 1015.3
20260830110109 77 0 0.0 2.0 0.00 0.00 0.00 72 1015.1
20260830104606 78 197 0.0 5.0 0.00 0.00 0.00 71 1015.0
20260830103102 78 0 0.0 3.0 0.00 0.00 0.00 70 1014.9
20260830101559 78 0 0.0 3.0 0.00 0.00 0.00 69 1014.8
20260830100122 78 0 0.0 3.0 0.00 0.00 0.00 69 1014.8
20260830094602 78 0 0.0 0.0 0.00 0.00 0.00 68 1014.8
20260830093102 79 0 0.0 0.0 0.00 0.00 0.00 67 1014.8
20260830091607 79 0 0.0 0.0 0.00 0.00 0.00 65 1014.8
20260830090100 80 0 0.0 1.0 0.00 0.00 0.00 64 1014.7
20260830084600 80 0 0.0 3.0 0.00 0.00 0.00 63 1014.7
20260830083102 81 0 0.0 5.0 0.00 0.00 0.00 62 1014.7